Regional Weather Roundup
Issued by NWS Northern Indiana

Home | Current Version | Previous Version | Graphics & Text | Print | Product List | Glossary On
Versions: 1 2 3 4 5 6 7 8 9 10 11 12 13 14 15 16 17 18 19 20 21 22 23 24 25 26 27 28 29 30 31 32 33 34 35 36 37 38 39 40 41 42 43 44 45 46 47 48 49 50
000
ASUS43 KIWX 190710
RWRIWX

KIWX WEATHER ROUNDUP
NATIONAL WEATHER SERVICE NORTHERN INDIANA
300 AM EDT SAT APR 19 2014

NOTE: "FAIR" INDICATES FEW OR NO CLOUDS BELOW 12,000 FEET WITH NO
SIGNIFICANT WEATHER AND/OR OBSTRUCTIONS TO VISIBILITY.

* THESE STATIONS ARE NOT UNDER NWS QUALITY CONTROL. THEY ALSO MAY NOT
  REPORT WEATHER SUCH AS PRECIPITATION OR FOG.

INZ001>027-190800-
NORTHERN INDIANA

CITY           SKY/WX    TMP DP  RH WIND       PRES   REMARKS
GARY*          CLEAR     38  31  76 NE9       30.37S
VALPARAISO     CLEAR     32  26  78 N5        30.35S WCI  27
MICHIGAN CITY* CLEAR     30  28  93 CALM      30.36S
LAPORTE*       CLEAR     36  26  67 NE3       30.35S
SOUTH BEND     CLEAR     36  26  67 NE6       30.35S
GOSHEN         CLEAR     36  27  69 N5        30.33S
MONTICELLO*    CLEAR     37  29  70 N8        30.31F
LOGANSPORT*    CLEAR     37  28  70 N10       30.31F
ROCHESTER*     CLEAR     37  27  65 N3        30.33F
WARSAW*        FAIR      34  28  80 N3        30.33S
ANGOLA*        CLEAR     39  30  70 NE5       30.32F
FORT WAYNE     CLEAR     39  33  79 N7        30.31F
HUNTINGTON*    FAIR      40  33  75 N6        30.30F
PERU/GRISSOM   CLEAR     40  31  72 N8        30.30S
MARION*        CLEAR     40  32  73 NE6       30.30F

$$
INZ028>050-190800-
CENTRAL INDIANA

CITY           SKY/WX    TMP DP  RH WIND       PRES   REMARKS
LAFAYETTE      CLEAR     39  29  67 N6        30.30F
KOKOMO*        CLEAR     39  28  65 NE5       30.31S
MUNCIE*        CLEAR     41  35  79 N6        30.28F
INDIANAPOLIS   PTCLDY    46  35  65 NE8       30.28F

$$
MIZ043>046-050>051-056>058-064>065-071>073-077>080-190800-
SOUTHWEST LOWER MICHIGAN

CITY           SKY/WX    TMP DP  RH WIND       PRES   REMARKS
BATTLE CREEK   CLEAR     39  29  67 NE9       30.36S
BENTON HARBOR  CLEAR     30  27  88 NE3       30.36S
COLDWATER*     CLEAR     40  32  74 NE7       30.33S
HILLSDALE*     CLEAR     42  36  79 NE6       30.33S
HOLLAND        CLEAR     38  26  62 E8        30.39R
GRAND RAPIDS   CLEAR     36  25  64 NE8       30.39S
KALAMAZOO      CLEAR     40  29  64 NE7       30.36S
STURGIS*       CLEAR     37  30  75 NE8       30.33S
THREE RIVERS*  FAIR      38  30  73 CALM      30.35S

$$
OHZ001>008-015>018-024>025-190800-
NORTHWEST OHIO

CITY           SKY/WX    TMP DP  RH WIND       PRES   REMARKS
WAUSEON*       FAIR      41  37  87 E13       30.34R
DEFIANCE       CLEAR     44  38  79 NE6       30.32S
FINDLAY        MOCLDY    44  41  89 NE20      30.30R FOG
TOLEDO EXPRESS CLEAR     39  34  82 NE12      30.34R
TOLEDO METCALF CLEAR     40  33  76 NE9       30.36R
LIMA           PTCLDY    45  41  86 NE9       30.28S

$$
&&



USA.gov is the U.S. government's official web portal to all federal, state and local government web resources and services.